UUI YCBG-YCBG

Flight info

Callsign UUI
Flight time 0h 0m
Altitude 2500
Route YCBG MORN HCTY YCBG
Aircraft AS50/M-SDE3FGHIRWY/LB1

Departure

Time 2026-04-12 10:52
Airport Cambridge Aerodrome (YCBG)

Arrival

Time 2026-04-12 10:52
Airport Cambridge Aerodrome (YCBG)
Time Latitude Longitude Altitude Speed Heading
2026-04-12 10:19 -42.82931 147.47513 36 ft 0 kts 283°
2026-04-12 10:49 -42.82929 147.47514 43 ft 6 kts 15°
2026-04-12 10:49 -42.82941 147.47635 88 ft 17 kts 68°
2026-04-12 10:49 -42.82961 147.47702 50 ft 3 kts 53°
2026-04-12 10:49 -42.82955 147.47708 34 ft 0 kts 22°
2026-04-12 10:50 -42.82945 147.47710 54 ft 16 kts 10°
2026-04-12 10:51 -42.82640 147.47818 101 ft 60 kts 334°
2026-04-12 10:51 -42.82333 147.47383 252 ft 66 kts 303°
2026-04-12 10:51 -42.82185 147.46817 423 ft 66 kts 265°
2026-04-12 10:51 -42.82360 147.46239 600 ft 68 kts 242°
2026-04-12 10:52 -42.82801 147.46138 688 ft 88 kts 137°
2026-04-12 10:52 -42.82805 147.47088 235 ft 113 kts 88°
2026-04-12 10:52 -42.82893 147.47987 64 ft 78 kts 111°
2026-04-12 10:52 -42.82990 147.48447 67 ft 10 kts 291°
2026-04-12 10:53 -42.82994 147.48445 38 ft 1 kts 284°
2026-04-12 10:53 -42.82955 147.48326 50 ft 22 kts 256°
2026-04-12 10:53 -42.82891 147.48184 54 ft 2 kts 152°
2026-04-12 10:53 -42.82891 147.48188 34 ft 3 kts 136°
2026-04-12 10:54 -42.82890 147.48188 34 ft 0 kts 140°
2026-04-12 10:54 -42.82891 147.48190 45 ft 2 kts 140°
2026-04-12 10:54 -42.82898 147.48200 44 ft 1 kts 129°
2026-04-12 10:55 -42.82900 147.48204 34 ft 0 kts 138°
2026-04-12 10:56 -42.82902 147.48208 39 ft 1 kts 133°
2026-04-12 10:56 -42.82915 147.48224 43 ft 2 kts 108°
2026-04-12 10:56 -42.82903 147.48210 47 ft 0 kts 127°
2026-04-12 10:56 -42.82901 147.48218 53 ft 1 kts 131°
2026-04-12 10:57 -42.82914 147.48228 49 ft 2 kts 131°
2026-04-12 10:57 -42.82918 147.48230 49 ft 1 kts 134°
2026-04-12 10:57 -42.82806 147.48061 171 ft 45 kts 317°
2026-04-12 10:57 -42.82526 147.47614 214 ft 73 kts 290°
2026-04-12 10:58 -42.82729 147.46965 337 ft 77 kts 242°
2026-04-12 10:58 -42.83035 147.46377 496 ft 76 kts 240°
2026-04-12 10:58 -42.83345 147.45795 655 ft 75 kts 240°
2026-04-12 10:58 -42.83655 147.45223 810 ft 75 kts 240°
2026-04-12 10:59 -42.83966 147.44653 966 ft 75 kts 239°
2026-04-12 10:59 -42.84361 147.43996 929 ft 118 kts 227°
2026-04-12 10:59 -42.85013 147.43115 951 ft 146 kts 222°
2026-04-12 10:59 -42.85851 147.42167 889 ft 162 kts 218°
2026-04-12 11:00 -42.86769 147.41237 823 ft 168 kts 217°
2026-04-12 11:00 -42.87686 147.40256 778 ft 169 kts 221°
2026-04-12 11:00 -42.88506 147.39101 635 ft 172 kts 233°
2026-04-12 11:00 -42.88876 147.37586 495 ft 171 kts 266°
2026-04-12 11:01 -42.88709 147.36023 545 ft 163 kts 282°
2026-04-12 11:01 -42.88431 147.34535 520 ft 153 kts 291°
2026-04-12 11:01 -42.87898 147.33961 491 ft 76 kts 40°
2026-04-12 11:01 -42.87939 147.34195 208 ft 24 kts 269°
2026-04-12 11:02 -42.87884 147.34027 126 ft 33 kts 308°
2026-04-12 11:02 -42.87789 147.33835 61 ft 8 kts 313°
2026-04-12 11:02 -42.87778 147.33820 45 ft 0 kts 317°
2026-04-12 11:08 -42.87769 147.33901 94 ft 28 kts 121°
2026-04-12 11:09 -42.88015 147.34182 240 ft 59 kts 154°
2026-04-12 11:09 -42.87947 147.34650 334 ft 67 kts
2026-04-12 11:09 -42.87598 147.34274 448 ft 75 kts 314°
2026-04-12 11:09 -42.87112 147.33820 442 ft 95 kts 333°
2026-04-12 11:10 -42.86466 147.33497 460 ft 98 kts 339°
2026-04-12 11:10 -42.85801 147.33196 419 ft 107 kts 342°
2026-04-12 11:10 -42.85059 147.32957 355 ft 111 kts 346°
2026-04-12 11:10 -42.84303 147.32733 346 ft 109 kts 346°
2026-04-12 11:11 -42.83590 147.32499 422 ft 102 kts 343°
2026-04-12 11:11 -42.82983 147.32252 506 ft 99 kts 339°
2026-04-12 11:11 -42.82325 147.31935 632 ft 95 kts 335°
2026-04-12 11:11 -42.82089 147.31272 267 ft 69 kts 246°
2026-04-12 11:12 -42.82253 147.30909 50 ft 25 kts 233°
2026-04-12 11:12 -42.82318 147.30840 45 ft 7 kts 303°
2026-04-12 11:12 -42.82312 147.30778 55 ft 4 kts 315°
2026-04-12 11:12 -42.82295 147.30747 39 ft 10 kts 314°
2026-04-12 11:13 -42.82152 147.30677 193 ft 47 kts 36°
2026-04-12 11:13 -42.82250 147.30805 89 ft 14 kts 263°
2026-04-12 11:13 -42.82211 147.30751 26 ft 10 kts 94°
2026-04-12 11:13 -42.82242 147.30889 81 ft 21 kts 170°
2026-04-12 11:14 -42.82425 147.31287 98 ft 101 kts 124°
2026-04-12 11:14 -42.82904 147.32303 79 ft 143 kts 144°
2026-04-12 11:14 -42.83760 147.32834 481 ft 132 kts 162°
2026-04-12 11:14 -42.84640 147.33312 584 ft 140 kts 161°
2026-04-12 11:15 -42.85119 147.33755 1225 ft 25 kts 287°
2026-04-12 11:15 -42.85566 147.33948 929 ft 140 kts 154°
2026-04-12 11:15 -42.86551 147.34766 582 ft 170 kts 144°
2026-04-12 11:15 -42.86581 147.36020 1255 ft 151 kts 36°
2026-04-12 11:16 -42.85592 147.36107 1226 ft 154 kts 322°
2026-04-12 11:16 -42.85338 147.34827 1092 ft 156 kts 241°
2026-04-12 11:16 -42.86254 147.34850 736 ft 181 kts 96°
2026-04-12 11:16 -42.85388 147.35080 563 ft 140 kts 303°
2026-04-12 11:17 -42.85480 147.33897 636 ft 140 kts 233°
2026-04-12 11:17 -42.86184 147.32976 695 ft 137 kts 268°
2026-04-12 11:17 -42.85538 147.32140 946 ft 159 kts 354°
2026-04-12 11:17 -42.84688 147.33159 892 ft 189 kts 77°
2026-04-12 11:18 -42.85026 147.34886 218 ft 174 kts 123°
2026-04-12 11:18 -42.85310 147.35662 718 ft 48 kts 230°
2026-04-12 11:18 -42.85224 147.35319 791 ft 54 kts 327°
2026-04-12 11:18 -42.84859 147.35259 610 ft 56 kts 58°
2026-04-12 11:19 -42.84718 147.35634 322 ft 35 kts 180°
2026-04-12 11:19 -42.84815 147.35869 151 ft 31 kts 193°
2026-04-12 11:19 -42.84943 147.35808 45 ft 11 kts 304°
2026-04-12 11:19 -42.84918 147.35799 23 ft 7 kts 32°
2026-04-12 11:36 -42.84906 147.35804 29 ft 3 kts 262°
2026-04-12 11:36 -42.84865 147.35776 616 ft 14 kts 245°
2026-04-12 11:36 -42.84912 147.35521 390 ft 61 kts 187°
2026-04-12 11:37 -42.84932 147.35841 26 ft 20 kts 308°
2026-04-12 11:37 -42.85042 147.35619 42 ft 41 kts 239°
2026-04-12 11:37 -42.85271 147.35274 253 ft 65 kts 253°
2026-04-12 11:37 -42.85610 147.34970 645 ft 81 kts 95°
2026-04-12 11:38 -42.85252 147.34748 571 ft 101 kts 273°
2026-04-12 11:38 -42.84834 147.33651 120 ft 152 kts 302°
2026-04-12 11:38 -42.85171 147.33114 519 ft 138 kts 150°
2026-04-12 11:38 -42.85872 147.34103 582 ft 151 kts 125°
2026-04-12 11:39 -42.86638 147.34826 770 ft 138 kts 207°
2026-04-12 11:39 -42.86879 147.33703 996 ft 146 kts 287°
2026-04-12 11:39 -42.86009 147.32837 1073 ft 171 kts 346°
2026-04-12 11:39 -42.84938 147.32726 1207 ft 111 kts 355°
2026-04-12 11:40 -42.84568 147.32754 1553 ft 27 kts 341°
2026-04-12 11:40 -42.84108 147.32594 1624 ft 89 kts 329°
2026-04-12 11:40 -42.83421 147.32454 1754 ft 117 kts 355°
2026-04-12 11:40 -42.82524 147.32712 1450 ft 145 kts 346°
2026-04-12 11:41 -42.81601 147.32131 1085 ft 153 kts 321°
2026-04-12 11:41 -42.81033 147.31093 888 ft 108 kts 262°
2026-04-12 11:41 -42.81556 147.30636 767 ft 114 kts 175°
2026-04-12 11:41 -42.81997 147.30220 840 ft 79 kts 249°
2026-04-12 11:42 -42.82361 147.30228 913 ft 96 kts 124°
2026-04-12 11:42 -42.82827 147.31169 853 ft 112 kts 143°
2026-04-12 11:42 -42.83494 147.31687 1060 ft 118 kts 143°
2026-04-12 11:43 -42.84866 147.33252 1025 ft 117 kts 141°
2026-04-12 11:43 -42.85452 147.33798 963 ft 94 kts 143°
2026-04-12 11:43 -42.85952 147.34356 1040 ft 93 kts 141°
2026-04-12 11:43 -42.86499 147.34920 1027 ft 99 kts 149°
2026-04-12 11:44 -42.87026 147.35474 1009 ft 102 kts 141°
2026-04-12 11:44 -42.87597 147.36164 1017 ft 109 kts 140°
2026-04-12 11:44 -42.87953 147.36616 1112 ft 97 kts 168°
2026-04-12 11:44 -42.88504 147.37113 990 ft 107 kts 140°
2026-04-12 11:45 -42.88995 147.37737 1023 ft 91 kts 146°
2026-04-12 11:45 -42.89473 147.37637 774 ft 103 kts 253°
2026-04-12 11:45 -42.89399 147.36724 1001 ft 109 kts 305°
2026-04-12 11:45 -42.88759 147.36195 1085 ft 101 kts 323°
2026-04-12 11:46 -42.88248 147.35692 954 ft 93 kts 321°
2026-04-12 11:46 -42.87660 147.35190 1014 ft 96 kts 315°
2026-04-12 11:46 -42.87154 147.34692 963 ft 95 kts 316°
2026-04-12 11:46 -42.86619 147.34149 986 ft 97 kts 316°
2026-04-12 11:47 -42.86099 147.33625 1029 ft 89 kts 313°
2026-04-12 11:47 -42.85591 147.33124 986 ft 93 kts 319°
2026-04-12 11:47 -42.85074 147.32626 1054 ft 89 kts 314°
2026-04-12 11:47 -42.84517 147.32263 1120 ft 102 kts 353°
2026-04-12 11:48 -42.84046 147.33144 778 ft 141 kts 89°
2026-04-12 11:48 -42.84360 147.34397 725 ft 141 kts 119°
2026-04-12 11:48 -42.84779 147.35587 697 ft 139 kts 119°
2026-04-12 11:48 -42.85141 147.36745 866 ft 127 kts 118°
2026-04-12 11:49 -42.85367 147.37938 925 ft 132 kts 99°
2026-04-12 11:49 -42.85437 147.39159 1032 ft 129 kts 89°
2026-04-12 11:49 -42.85269 147.40352 1130 ft 128 kts 70°
2026-04-12 11:49 -42.84886 147.41413 1180 ft 132 kts 52°
2026-04-12 11:50 -42.84195 147.42265 1090 ft 133 kts 30°
2026-04-12 11:50 -42.83367 147.42734 1101 ft 126 kts
2026-04-12 11:50 -42.82529 147.42940 1219 ft 122 kts 11°
2026-04-12 11:50 -42.82165 147.44007 1080 ft 141 kts 99°
2026-04-12 11:51 -42.82484 147.45278 927 ft 140 kts 117°
2026-04-12 11:51 -42.82880 147.46383 1008 ft 122 kts 128°
2026-04-12 11:51 -42.83351 147.47232 1005 ft 109 kts 141°
2026-04-12 11:51 -42.83807 147.47956 1138 ft 90 kts 146°
2026-04-12 11:52 -42.84167 147.48560 1314 ft 76 kts 149°
2026-04-12 11:52 -42.84152 147.49059 1145 ft 33 kts 316°
2026-04-12 11:52 -42.83978 147.49096 739 ft 24 kts 322°
2026-04-12 11:52 -42.83838 147.49109 699 ft 18 kts 314°
2026-04-12 11:53 -42.83758 147.48967 658 ft 33 kts 306°
2026-04-12 11:53 -42.83421 147.48648 296 ft 76 kts 332°
2026-04-12 11:53 -42.83040 147.48294 128 ft 61 kts 316°
2026-04-12 11:53 -42.82674 147.47854 94 ft 67 kts 314°
2026-04-12 11:54 -42.82377 147.47586 212 ft 24 kts 159°
2026-04-12 11:54 -42.82471 147.47625 108 ft 32 kts 181°
2026-04-12 11:54 -42.82634 147.47709 99 ft 16 kts 210°
2026-04-12 11:54 -42.82723 147.47733 68 ft 8 kts 225°
2026-04-12 11:55 -42.82812 147.47787 102 ft 15 kts 213°
2026-04-12 11:55 -42.82891 147.47731 93 ft 8 kts 117°
2026-04-12 11:55 -42.82920 147.47722 104 ft 5 kts 39°
2026-04-12 11:55 -42.82938 147.47686 109 ft 8 kts 342°
2026-04-12 11:56 -42.82818 147.47682 52 ft 6 kts 173°
2026-04-12 11:56 -42.82876 147.47684 63 ft 16 kts 124°
2026-04-12 11:56 -42.82903 147.47693 48 ft 23 kts 295°
2026-04-12 11:56 -42.82948 147.47519 89 ft 5 kts 318°
2026-04-12 11:57 -42.82930 147.47522 38 ft 0 kts 99°
2026-04-12 11:57 -42.82930 147.47524 33 ft 0 kts 99°